Moffett NAS, CA

1:23 PM PDT on May 24, 2017 (GMT -0700)
Moffett Federal Air Field

Weather History for KNUQ - October, 2012

Change the Weather History Date:

Wednesday, October 3, 2012

  Actual Average Record
Temperature  
Mean Temperature 73 °F 66 °F  
Max Temperature 84 °F 76 °F 97 °F (1985)
Min Temperature 61 °F 56 °F 43 °F (1950)
Degree Days  
Heating Degree Days 0    
Month to date heating degree days 0  
Since 1 July heating degree days 46  
Cooling Degree Days 8    
Month to date cooling degree days 31  
Year to date cooling degree days 289  
Growing Degree Days 22 (Base 50)    
Moisture  
Dew Point 54 °F    
Average Humidity 59    
Maximum Humidity 84    
Minimum Humidity 33    
Precipitation  
Precipitation 0.00 in 0.01 in 0.29 in (2011)
Month to date precipitation 0.00 0.03  
Year to date precipitation 5.51 9.87  
Since 1 July precipitation T  
Sea Level Pressure  
Sea Level Pressure 29.90 in    
Wind  
Wind Speed 4 mph (NNW)    
Max Wind Speed 15 mph    
Max Gust Speed 20 mph    
Visibility 10 miles    
Events      
T = Trace of Precipitation, MM = Missing Value Source: NWS Daily Summary

Daily Weather History Graph

Daily Weather History Graph

Search for Another Location

Airport or City:

Trip Planner

Search our weather history database for the weather conditions in past years. The results will help you decide how hot, cold, wet, or windy it might be!

Date:

Astronomy

Oct. 03, 2012 Rise Set
Actual Time 7:05 AM PDT 6:47 PM PDT
Civil Twilight 6:39 AM PDT 7:13 PM PDT
Nautical Twilight 6:09 AM PDT 7:43 PM PDT
Astronomical Twilight 5:39 AM PDT 8:14 PM PDT
Moon 8:48 PM PDT (10/3) 10:29 AM PDT (10/3)
Length of Visible Light 12h 33m
Length of Day
11h 41m
Waning Gibbous, 88% of the Moon is Illuminated
Oct 3
Waning Gibbous
Oct 8
Last Quarter
Oct 15
New
Oct 21
First Quarter
Oct 29
Full

Hourly Weather History & Observations

Time (PDT) Temp. Heat Index Dew Point Humidity Pressure Visibility Wind Dir Wind Speed Gust Speed Precip Events Conditions
12:56 AM 72.0 °F - 46.9 °F 41% 29.82 in 10.0 mi Calm Calm - N/A   Clear
1:56 AM 69.1 °F - 48.9 °F 49% 29.83 in 10.0 mi Calm Calm - N/A   Clear
2:56 AM 68.0 °F - 48.0 °F 49% 29.83 in 10.0 mi Calm Calm - N/A   Clear
3:56 AM 66.9 °F - 48.9 °F 52% 29.83 in 10.0 mi Calm Calm - N/A   Clear
4:56 AM 64.9 °F - 48.9 °F 56% 29.84 in 10.0 mi Calm Calm - N/A   Clear
5:56 AM 66.0 °F - 50.0 °F 56% 29.85 in 10.0 mi Calm Calm - N/A   Clear
6:56 AM 64.0 °F - 50.0 °F 60% 29.86 in 10.0 mi Calm Calm - N/A   Clear
7:56 AM 64.9 °F - 51.1 °F 61% 29.88 in 10.0 mi Calm Calm - N/A   Clear
8:56 AM 69.1 °F - 55.9 °F 63% 29.89 in 10.0 mi Calm Calm - N/A   Clear
9:56 AM 73.9 °F - 59.0 °F 59% 29.90 in 10.0 mi North 3.5 mph - N/A   Clear
10:56 AM 75.9 °F - 60.1 °F 58% 29.91 in 10.0 mi North 4.6 mph - N/A   Clear
11:56 AM 80.1 °F 80.4 °F 57.0 °F 45% 29.91 in 10.0 mi North 9.2 mph - N/A   Clear
12:56 PM 82.9 °F - 50.0 °F 32% 29.89 in 10.0 mi North 8.1 mph - N/A   Clear
1:56 PM 81.0 °F 80.7 °F 55.0 °F 41% 29.88 in 10.0 mi NNW 11.5 mph - N/A   Clear
2:56 PM 81.0 °F 80.8 °F 55.9 °F 42% 29.88 in 10.0 mi NNW 9.2 mph - N/A   Clear
3:56 PM 77.0 °F - 57.0 °F 50% 29.89 in 10.0 mi NNW 9.2 mph - N/A   Clear
4:56 PM 73.0 °F - 59.0 °F 61% 29.90 in 10.0 mi NW 10.4 mph - N/A   Clear
5:56 PM 70.0 °F - 57.9 °F 65% 29.91 in 10.0 mi NW 8.1 mph 17.3 mph N/A   Clear
6:56 PM 66.9 °F - 57.9 °F 73% 29.93 in 10.0 mi NNW 6.9 mph - N/A   Clear
7:56 PM 64.9 °F - 57.9 °F 78% 29.95 in 10.0 mi North 8.1 mph - N/A   Clear
8:56 PM 63.0 °F - 57.0 °F 81% 29.97 in 10.0 mi North 4.6 mph - N/A   Clear
9:56 PM 63.0 °F - 57.0 °F 81% 29.99 in 10.0 mi Calm Calm - N/A   Clear
10:56 PM 62.1 °F - 55.9 °F 80% 30.00 in 10.0 mi NNW 4.6 mph - N/A   Clear
11:56 PM 62.1 °F - 57.0 °F 84% 30.01 in 9.0 mi Calm Calm - N/A   Clear